www.pogodaiklimat.ru

Погода и климат >> Архив погоды >> Россия >> Ямало-Ненецкий АО >> Сеяха


ПОГОДА в Сеяхе

  • Прогноз погоды в Сеяхе
  • Монитор погоды в Сеяхе
  • Климат города

АРХИВ ПОГОДЫ в Сеяхе

Время (UTC), дата Ветер
(напр.,м/с)
 
Видим.   Явления Облачность Т
(С)
Тd
(С)
f
(%)
Тe
(С)
Тes
(С)
Комфортность P
(гПа)
Po
(гПа)
Тmin
(С)
Tmax
(С)
R
(мм)
R24
(мм)
S
(см)
03 13.07 С 4 20 км 3/0
[Ci fib]
+9.1 +2.4 63 +6 +10 1020.8 1018.6 +5.8
06 13.07 С 4 20 км 4/4 270 м
[Cu hum]
+10.6 +2.9 59 +8 +12 1021.2 1018.9
09 13.07 ЮВ 4 20 км 3/0
[Ci fib]
+11.6 +4.0 60 +10 +15 1021.0 1018.8
12 13.07 Ю 5 20 км 1/0
[Ac trans]
+11.6 +4.4 61 +9 +11 1020.7 1018.5
15 13.07 З 5 20 км 6/0
[Ac trans]
+15.7 +6.0 52 +15 +15 1019.8 1017.7 +15.7
18 13.07 З 3 20 км 4/0
[Ac trans]
+11.8 +7.6 75 +10 +10 1019.5 1017.4
21 13.07 З 3 20 км 6/0
[Ac trans]
+9.2 +6.4 83 +7 +7 1019.4 1017.2
00 14.07 З 5 20 км 8/0
[Ac trans]
+9.5 +6.0 79 +6 +7 1019.4 1017.2
03 14.07 З 6 20 км 3/0
[Ac trans]
+12.7 +5.4 61 +10 +12 1019.2 1017.0 +8.9
06 14.07 З 4
{10}
20 км 3/0 300 м
[Ci fib]
+16.2 +5.4 49 +16 +21 1018.8 1016.6
09 14.07 З 5 20 км ясно +18.7 +5.8 43 +19 +23 1018.3 1016.1
12 14.07 З 4 20 км 3/0
[Ac trans]
+20.2 +6.6 41 +21 +24 комфорт 1018.3 1016.2
15 14.07 З 4 20 км 6/0
[Ci fib]
+19.8 +8.4 48 +21 +21 комфорт 1017.8 1015.7 +20.6
18 14.07 З 3 20 км 4/0
[Ci fib]
+15.3 +10.6 74 +15 +15 1017.9 1015.8
21 14.07 З 2 20 км 4/0
[Ci fib]
+13.0 +9.9 81 +12 +12 1018.2 1016.1
00 15.07 З 1 20 км 8/0
[Ci fib]
+13.2 +10.7 85 +13 +15 1018.6 1016.4
03 15.07 ЮВ 3 20 км 8/0
[Ci fib]
+16.4 +11.5 73 +16 +20 1018.4 1016.2 +12.8
06 15.07 ЮВ 5 20 км 6/0 270 м
[Ci fib]
+19.7 +9.2 51 +21 +25 комфорт 1017.5 1015.4
09 15.07 Ю 6 20 км 6/0
[Ac trans Ci fib]
+18.7 +11.0 61 +19 +21 1016.9 1014.8
12 15.07 Ю 6
{10}
20 км 4/0
[Ac trans Ci fib]
+20.1 +7.8 45 +21 +22 комфорт 1016.3 1014.2
15 15.07 Ю 5 20 км 1/0
[Ac trans]
+18.1 +8.9 55 +18 +18 1015.6 1013.5 +20.7
18 15.07 Ю 5 20 км 1/0
[Ci fib]
+12.8 +9.9 83 +11 +11 1015.1 1012.9
21 15.07 Ю 6 20 км 3/0
[Ac trans]
+12.3 +10.5 89 +10 +10 1014.8 1012.6
00 16.07 Ю 1 20 км 4/0
[Ci fib]
+14.9 +11.7 81 +15 +17 1014.7 1012.5
03 16.07 ЮВ 3 20 км 8/4 600 м
[Cu Sc Ci fib]
+19.6 +13.5 68 +21 +24 комфорт 1014.2 1012.1 +11.1
06 16.07 ЮВ 4 20 км 8/3 240 м
[Cu Sc Ci fib]
+22.1 +12.9 56 +25 +28 комфорт 1013.3 1011.2
09 16.07 ЮВ 5 20 км 9/0
[Ac trans Ci fib]
+20.1 +12.9 63 +22 +24 комфорт 1012.1 1010.0
12 16.07 ЮВ 4 20 км 9/9 600 м
[Cb cap]
+17.3 +12.7 74 +17 +17 1010.7 1008.6
15 16.07 ЮВ 6 20 км {ливн. осадки} 9/9 570 м
[Cb cap]
+14.5 +10.1 75 +13 +13 1009.2 1007.0 +22.5 0.0
18 16.07 Ю 6 20 км {ливн. осадки} 9/9 540 м
[Cb cap]
+17.9 +12.4 70 +17 +17 1007.0 1004.9
21 16.07 Ю 5 20 км {ливн. осадки} 9/9 570 м
[Cb cap]
+17.3 +12.9 75 +17 +17 1005.0 1002.9
00 17.07 Ю 4 20 км {ливн. осадки} 9/9 540 м
[Cb cap]
+16.1 +13.8 86 +15 +15 1003.7 1001.6
03 17.07 ЮЗ 5 20 км {ливн. осадки} 9/8 700 м
[Sc Ac trans]
+17.6 +15.7 89 +17 +17 1002.4 1000.3 +13.0 2
06 17.07 З 8-12
{13}
2000 м дымка {ливн. осадки} 10/10 150 м
[St]
+11.8 +10.6 92 +8 +8 1002.4 1000.3 +11.8
09 17.07 З 6
{12}
20 км 10/10 150 м
[St]
+13.7 +12.1 90 +11 +11 1002.6 1000.4
12 17.07 СЗ 9-13
{13}
20 км {ливн. осадки} 10/10 90 м
[St]
+13.5 +12.4 93 +11 +11 1004.7 1002.6
15 17.07 С 8-12
{13}
20 км 9/9 420 м
[Cb cap]
+13.7 +11.7 88 +11 +11 1006.8 1004.6 +17.8 0.4
18 17.07 СЗ 9-12
{14}
4000 м дымка 10/10 210 м
[St]
+9.2 +8.4 95 +4 +4 1009.4 1007.2
21 17.07 СЗ 7
{13}
20 км 9/9 400 м
[Sc]
+6.6 +5.7 94 +1 +1 1011.0 1008.8
00 18.07 З 7-11
{12}
20 км 9/9 540 м
[Sc]
+5.9 +5.0 94 +1 +1 1012.2 1010.0
03 18.07 СЗ 8-11
{11}
20 км 4/4 600 м
[Cu Sc]
+9.2 +6.0 80 +5 +6 1013.0 1010.8 +5.6
06 18.07 СЗ 9-13
{13}
20 км 8/8 270 м
[Cu Sc]
+13.2 +6.3 63 +10 +11 1013.8 1011.6
09 18.07 СВ 5
{13}
20 км 8/8 930 м
[Cb cap]
+9.8 +6.3 79 +7 +8 1015.4 1013.2
12 18.07 СВ 9-10
{11}
20 км 9/9 480 м
[Cb cap]
+7.8 +5.3 84 +3 +3 1017.4 1015.2
15 18.07 СВ 7
{11}
20 км 9/9 500 м
[Cb cap]
+6.7 +3.5 80 +2 +2 1018.9 1016.7 +13.3
18 18.07 СВ 6 20 км 6/6 600 м
[Sc]
+4.7 +1.5 80 -0 -0 1020.2 1017.9
21 18.07 СВ 6 20 км 9/9 700 м
[Sc]
+4.3 +0.3 75 -1 -1 1021.5 1019.2
00 19.07 СВ 3 20 км 9/9 630 м
[Sc]
+4.0 -0.4 73 +1 +1 1022.9 1020.7
03 19.07 СВ 2 20 км 9/9 660 м
[Sc]
+5.6 -0.4 65 +3 +4 1024.1 1021.8 +3.9
06 19.07 В 2 20 км 6/3 300 м
[Cu hum Ci fib]
+7.8 +0.9 62 +6 +12 1024.4 1022.2
09 19.07 СЗ 4 20 км 8/4 600 м
[Cu hum Ci fib]
+9.8 -0.6 48 +8 +10 1024.3 1022.1
12 19.07 СВ 2
{10}
20 км 6/3 600 м
[Cu hum Ci fib]
+9.9 +0.5 52 +9 +11 1024.8 1022.6
15 19.07 В 2 20 км 4/0
[Ac trans Ci fib]
+8.0 +0.8 60 +6 +7 1025.6 1023.3 +11.1
18 19.07 С 3 20 км 1/0
[Ci fib]
+7.4 +2.2 70 +5 +5 1026.3 1024.0
21 19.07 СЗ 3 20 км 6/0
[Ac trans Ci fib]
+4.9 +2.0 81 +1 +1 1026.9 1024.6

 

Местоположение метеостанции Сеяха (Ямало-Ненецкий АО, Россия): широта 70.17 долгота 72.52 высота над уровнем моря 18 м.

В архиве по умолчанию представлена погода в Сеяхе за последнюю неделю. Архивные данные за месяц целиком и за предыдущие месяцы, начиная с января 2011 года, Вы можете получить, выбрав интересующий диапазон дат из раскрывающегося списка и нажав кнопку "Ввод!".


*Определитесь, кто Вы:
робот инопланетянин человек

Внимание! Время в таблицах - всемирное. Для получения местного времени необходимо прибавить поправку, которая в Сеяхе равна 5 ч.

Смотрите также архив погоды в соседних городах и на ближайших метеорологических станциях:

Погода в Тамбее (Ямало-Ненецкий АО, Россия) (148 км)
Погода в Антипаюте (Ямало-Ненецкий АО, Россия) (207 км)
Погода в Марресаля (Ямало-Ненецкий АО, Россия) (224 км)
Погода в Гыде (Ямало-Ненецкий АО, Россия) (234 км)
Погода в Новом Порте (Ямало-Ненецкий АО, Россия) (277 км)
Погода в Inari Angeli (Финляндия) (299 км)
Погода в Усть-Каре (Ненецкий АО, Россия) (310 км)
Погода в Имени Попова (Ямало-Ненецкий АО, Россия) (362 км)
Погода в Тазовском (Ямало-Ненецкий АО, Россия) (390 км)
Погода в Ныде (Ямало-Ненецкий АО, Россия) (394 км)

Пояснения к столбцам:

Ветер - указаны скорость ветра в м/с - средняя за 10 мин, порывы в срок и между сроками (в фигурных скобках) и направление, откуда дует ветер: С - северный, СВ - северо-восточный, В - восточный, ЮВ - юго-восточный, Ю - южный, ЮЗ - юго-западный, З - западный, СЗ - северо-западный.
Видимость - горизонтальная дальность видимости в метрах или километрах. При видимости от 1 до 10 км при отсутствии осадков обычно наблюдается дымка, при ухудшении видимости до 1 км и менее - туман. В сухую погоду видимость может ухудшаться дымом, пылью или мглою.
Явления - указаны атмосферные явления, наблюдавшиеся в срок или в последний час перед сроком; фигурными скобками обозначены явления, наблюдавшиеся между сроками (за 1-3 часа до срока); квадратными скобками обозначены град или гололедные отложения с указанием их диаметра в мм.
Облачность - указаны через наклонную черту общая и нижняя облачность в баллах и высота нижней границы облаков в метрах; квадратными скобками обозначены формы облаков: Ci - перистые, Cs - перисто-слоистые, Cc - перисто-кучевые, Ac - высококучевые, As - высокослоистые, Sc - слоисто-кучевые, Ns - слоисто-дождевые, Cu - кучевые, Cb - кучево-дождевые. Подробнее классификацию облаков см. в Атласе облаков (PDF).
T - Температура воздуха - температура, измеренная на высоте 2 м над землей.
Td - Температура точки росы - температура, при понижении до которой содержащийся в воздухе водяной пар достигнет насыщения.
f - Относительная влажность воздуха - влажноcть воздуха, измеренная на высоте 2 м над землей.
Te - Эффективная температура - температура, которую ощущает одетый по сезону человек в тени. Характеристика душности погоды. При расчете учитывается влияние влажности воздуха и скорости ветра на теплоощущения человека.
Tes - Эффективная температура на солнце - температура, которую ощущает человек, с поправкой на солнечный нагрев. Характеристика знойности погоды. Зависит от высоты солнца над горизонтом, облачности и скорости ветра. Ночью, в пасмурную погоду, а также при ветре 12 м/с и более поправка равна нулю.
P - Атмосферное давление - приведенное к уровню моря атмосферное давление.
Po - Атмосферное давление - измеренное на уровне метеостанции атмосферное давление.
Tmin - Минимальная температура - минимум температуры воздуха на высоте 2 м над землей.
Tmax - Максимальная температура - максимум температуры воздуха на высоте 2 м над землей.
R - Количество осадков - Количество выпавших осадков за период времени, мм. При наведении курсора мыши на число - период времени, за который выпало указанное количество осадков.
R24 - Количество осадков - Количество выпавших осадков за 24 часа, мм.
S - Снежный покров - Высота снежного покрова, см. При наведении курсора мыши на число - состояние снежного покрова и степень покрытия местности в баллах.